owner,sensor,date,latitude,longitude,vertical_datum,sea_water_temperature,qcFlag 
TABS,ioos:station:wmo:42050:1,2001-05-01T00:00:00Z,28.8425,-94.2433,-2.0,22.36,11111222 
TABS,ioos:station:wmo:42050:1,2001-05-01T00:30:00Z,28.8425,-94.2433,-2.0,22.32,11111222 
TABS,ioos:station:wmo:42050:1,2001-05-01T01:00:00Z,28.8425,-94.2433,-2.0,22.29,11111222 
TABS,ioos:station:wmo:42050:1,2001-05-01T01:30:00Z,28.8425,-94.2433,-2.0,22.25,11111222 
TABS,ioos:station:wmo:42050:1,2001-05-01T02:00:00Z,28.8425,-94.2433,-2.0,22.24,11111222 
TABS,ioos:station:wmo:42050:1,2001-05-01T02:30:00Z,28.8425,-94.2433,-2.0,22.25,11111222 
TABS,ioos:station:wmo:42050:1,2001-05-01T03:00:00Z,28.8425,-94.2433,-2.0,22.22,11111222 
TABS,ioos:station:wmo:42050:1,2001-05-01T03:30:00Z,28.8425,-94.2433,-2.0,22.23,11111222 
TABS,ioos:station:wmo:42050:1,2001-05-01T04:00:00Z,28.8425,-94.2433,-2.0,22.23,11111222 
TABS,ioos:station:wmo:42050:1,2001-05-01T04:30:00Z,28.8425,-94.2433,-2.0,22.22,11111222 
TABS,ioos:station:wmo:42050:1,2001-05-01T05:00:00Z,28.8425,-94.2433,-2.0,22.21,11111222 
TABS,ioos:station:wmo:42050:1,2001-05-01T05:30:00Z,28.8425,-94.2433,-2.0,22.22,11111222 
TABS,ioos:station:wmo:42050:1,2001-05-01T06:00:00Z,28.8425,-94.2433,-2.0,22.21,11111222 
TABS,ioos:station:wmo:42050:1,2001-05-01T06:30:00Z,28.8425,-94.2433,-2.0,22.2,11111222 
TABS,ioos:station:wmo:42050:1,2001-05-01T07:00:00Z,28.8425,-94.2433,-2.0,22.19,11111222 
TABS,ioos:station:wmo:42050:1,2001-05-01T07:30:00Z,28.8425,-94.2433,-2.0,22.18,11111222 
TABS,ioos:station:wmo:42050:1,2001-05-01T12:00:00Z,28.8425,-94.2433,-2.0,22.21,11111222 
TABS,ioos:station:wmo:42050:1,2001-05-01T12:30:00Z,28.8425,-94.2433,-2.0,22.28,11111222 
TABS,ioos:station:wmo:42050:1,2001-05-01T13:00:00Z,28.8425,-94.2433,-2.0,22.31,11111222 
TABS,ioos:station:wmo:42050:1,2001-05-01T13:30:00Z,28.8425,-94.2433,-2.0,22.36,11111222 
TABS,ioos:station:wmo:42050:1,2001-05-01T14:00:00Z,28.8425,-94.2433,-2.0,22.31,11111222 
TABS,ioos:station:wmo:42050:1,2001-05-01T14:30:00Z,28.8425,-94.2433,-2.0,22.35,11111222 
TABS,ioos:station:wmo:42050:1,2001-05-01T15:00:00Z,28.8425,-94.2433,-2.0,22.41,11111222 
TABS,ioos:station:wmo:42050:1,2001-05-01T15:30:00Z,28.8425,-94.2433,-2.0,22.42,11111222 
TABS,ioos:station:wmo:42050:1,2001-05-01T16:00:00Z,28.8425,-94.2433,-2.0,22.46,11111222 
TABS,ioos:station:wmo:42050:1,2001-05-01T16:30:00Z,28.8425,-94.2433,-2.0,22.36,11111222 
TABS,ioos:station:wmo:42050:1,2001-05-01T17:00:00Z,28.8425,-94.2433,-2.0,22.39,11111222 
TABS,ioos:station:wmo:42050:1,2001-05-01T17:30:00Z,28.8425,-94.2433,-2.0,22.49,11111222 
TABS,ioos:station:wmo:42050:1,2001-05-01T18:00:00Z,28.8425,-94.2433,-2.0,22.54,11111222 
TABS,ioos:station:wmo:42050:1,2001-05-01T18:30:00Z,28.8425,-94.2433,-2.0,22.51,11111222 
TABS,ioos:station:wmo:42050:1,2001-05-01T19:00:00Z,28.8425,-94.2433,-2.0,22.54,11111222 
TABS,ioos:station:wmo:42050:1,2001-05-01T19:30:00Z,28.8425,-94.2433,-2.0,22.45,11111222 
TABS,ioos:station:wmo:42050:1,2001-05-01T20:00:00Z,28.8425,-94.2433,-2.0,22.41,11111222 
TABS,ioos:station:wmo:42050:1,2001-05-01T20:30:00Z,28.8425,-94.2433,-2.0,22.44,11111222 
TABS,ioos:station:wmo:42050:1,2001-05-01T21:00:00Z,28.8425,-94.2433,-2.0,22.36,11111222 
TABS,ioos:station:wmo:42050:1,2001-05-01T21:30:00Z,28.8425,-94.2433,-2.0,22.53,11111222 
TABS,ioos:station:wmo:42050:1,2001-05-01T22:00:00Z,28.8425,-94.2433,-2.0,22.49,11111222 
TABS,ioos:station:wmo:42050:1,2001-05-01T22:30:00Z,28.8425,-94.2433,-2.0,22.55,11111222 
TABS,ioos:station:wmo:42050:1,2001-05-01T23:00:00Z,28.8425,-94.2433,-2.0,22.49,11111222 
TABS,ioos:station:wmo:42050:1,2001-05-01T23:30:00Z,28.8425,-94.2433,-2.0,22.46,11111222 
TABS,ioos:station:wmo:42050:1,2001-05-02T04:00:00Z,28.8425,-94.2433,-2.0,22.31,11111222 
TABS,ioos:station:wmo:42050:1,2001-05-02T04:30:00Z,28.8425,-94.2433,-2.0,22.33,11111222 
TABS,ioos:station:wmo:42050:1,2001-05-02T05:00:00Z,28.8425,-94.2433,-2.0,22.33,11111222 
TABS,ioos:station:wmo:42050:1,2001-05-02T05:30:00Z,28.8425,-94.2433,-2.0,22.35,11111222 
TABS,ioos:station:wmo:42050:1,2001-05-02T06:00:00Z,28.8425,-94.2433,-2.0,22.34,11111222 
TABS,ioos:station:wmo:42050:1,2001-05-02T06:30:00Z,28.8425,-94.2433,-2.0,22.34,11111222 
TABS,ioos:station:wmo:42050:1,2001-05-02T07:00:00Z,28.8425,-94.2433,-2.0,22.33,11111222 
TABS,ioos:station:wmo:42050:1,2001-05-02T07:30:00Z,28.8425,-94.2433,-2.0,22.34,11111222 
TABS,ioos:station:wmo:42050:1,2001-05-02T08:00:00Z,28.8425,-94.2433,-2.0,22.34,11111222 
TABS,ioos:station:wmo:42050:1,2001-05-02T08:30:00Z,28.8425,-94.2433,-2.0,22.37,11111222 
TABS,ioos:station:wmo:42050:1,2001-05-02T09:00:00Z,28.8425,-94.2433,-2.0,22.47,11111222 
TABS,ioos:station:wmo:42050:1,2001-05-02T09:30:00Z,28.8425,-94.2433,-2.0,22.63,11111222 
TABS,ioos:station:wmo:42050:1,2001-05-02T10:00:00Z,28.8425,-94.2433,-2.0,22.77,11111222 
TABS,ioos:station:wmo:42050:1,2001-05-02T10:30:00Z,28.8425,-94.2433,-2.0,22.84,11111222 
TABS,ioos:station:wmo:42050:1,2001-05-02T11:00:00Z,28.8425,-94.2433,-2.0,22.84,11111222 
TABS,ioos:station:wmo:42050:1,2001-05-02T11:30:00Z,28.8425,-94.2433,-2.0,22.85,11111222 
TABS,ioos:station:wmo:42050:1,2001-05-02T12:00:00Z,28.8425,-94.2433,-2.0,22.86,11111222 
TABS,ioos:station:wmo:42050:1,2001-05-02T12:30:00Z,28.8425,-94.2433,-2.0,22.88,11111222 
TABS,ioos:station:wmo:42050:1,2001-05-02T13:00:00Z,28.8425,-94.2433,-2.0,22.86,11111222 
TABS,ioos:station:wmo:42050:1,2001-05-02T13:30:00Z,28.8425,-94.2433,-2.0,22.89,11111222 
TABS,ioos:station:wmo:42050:1,2001-05-02T14:00:00Z,28.8425,-94.2433,-2.0,22.91,11111222 
TABS,ioos:station:wmo:42050:1,2001-05-02T14:30:00Z,28.8425,-94.2433,-2.0,22.95,11111222 
TABS,ioos:station:wmo:42050:1,2001-05-02T15:00:00Z,28.8425,-94.2433,-2.0,22.97,11111222 
TABS,ioos:station:wmo:42050:1,2001-05-02T15:30:00Z,28.8425,-94.2433,-2.0,23.03,11111222 
TABS,ioos:station:wmo:42050:1,2001-05-02T16:00:00Z,28.8425,-94.2433,-2.0,23.07,11111222 
TABS,ioos:station:wmo:42050:1,2001-05-02T16:30:00Z,28.8425,-94.2433,-2.0,23.14,11111222 
TABS,ioos:station:wmo:42050:1,2001-05-02T17:00:00Z,28.8425,-94.2433,-2.0,23.17,11111222 
TABS,ioos:station:wmo:42050:1,2001-05-02T17:30:00Z,28.8425,-94.2433,-2.0,23.23,11111222 
TABS,ioos:station:wmo:42050:1,2001-05-02T18:00:00Z,28.8425,-94.2433,-2.0,23.26,11111222 
TABS,ioos:station:wmo:42050:1,2001-05-02T18:30:00Z,28.8425,-94.2433,-2.0,23.42,11111222 
TABS,ioos:station:wmo:42050:1,2001-05-02T19:00:00Z,28.8425,-94.2433,-2.0,23.39,11111222 
TABS,ioos:station:wmo:42050:1,2001-05-02T19:30:00Z,28.8425,-94.2433,-2.0,23.43,11111222 
TABS,ioos:station:wmo:42050:1,2001-05-02T20:00:00Z,28.8425,-94.2433,-2.0,23.5,11111222 
TABS,ioos:station:wmo:42050:1,2001-05-02T20:30:00Z,28.8425,-94.2433,-2.0,23.53,11111222 
TABS,ioos:station:wmo:42050:1,2001-05-02T21:00:00Z,28.8425,-94.2433,-2.0,23.55,11111222 
TABS,ioos:station:wmo:42050:1,2001-05-02T21:30:00Z,28.8425,-94.2433,-2.0,23.57,11111222 
TABS,ioos:station:wmo:42050:1,2001-05-02T22:00:00Z,28.8425,-94.2433,-2.0,23.6,11111222 
TABS,ioos:station:wmo:42050:1,2001-05-02T22:30:00Z,28.8425,-94.2433,-2.0,23.75,11111222 
TABS,ioos:station:wmo:42050:1,2001-05-02T23:00:00Z,28.8425,-94.2433,-2.0,23.7,11111222 
TABS,ioos:station:wmo:42050:1,2001-05-02T23:30:00Z,28.8425,-94.2433,-2.0,23.63,11111222 
TABS,ioos:station:wmo:42050:1,2001-05-03T00:00:00Z,28.8425,-94.2433,-2.0,23.58,11111222 
TABS,ioos:station:wmo:42050:1,2001-05-03T00:30:00Z,28.8425,-94.2433,-2.0,23.55,11111222 
TABS,ioos:station:wmo:42050:1,2001-05-03T01:00:00Z,28.8425,-94.2433,-2.0,23.53,11111222 
TABS,ioos:station:wmo:42050:1,2001-05-03T01:30:00Z,28.8425,-94.2433,-2.0,23.47,11111222 
TABS,ioos:station:wmo:42050:1,2001-05-03T02:00:00Z,28.8425,-94.2433,-2.0,23.41,11111222 
TABS,ioos:station:wmo:42050:1,2001-05-03T02:30:00Z,28.8425,-94.2433,-2.0,23.33,11111222 
TABS,ioos:station:wmo:42050:1,2001-05-03T03:00:00Z,28.8425,-94.2433,-2.0,23.2,11111222 
TABS,ioos:station:wmo:42050:1,2001-05-03T03:30:00Z,28.8425,-94.2433,-2.0,23.18,11111222 
TABS,ioos:station:wmo:42050:1,2001-05-03T04:00:00Z,28.8425,-94.2433,-2.0,23.12,11111222 
TABS,ioos:station:wmo:42050:1,2001-05-03T04:30:00Z,28.8425,-94.2433,-2.0,23.03,11111222 
TABS,ioos:station:wmo:42050:1,2001-05-03T05:00:00Z,28.8425,-94.2433,-2.0,23.05,11111222 
TABS,ioos:station:wmo:42050:1,2001-05-03T05:30:00Z,28.8425,-94.2433,-2.0,23.0,11111222 
TABS,ioos:station:wmo:42050:1,2001-05-03T06:00:00Z,28.8425,-94.2433,-2.0,22.96,11111222 
TABS,ioos:station:wmo:42050:1,2001-05-03T06:30:00Z,28.8425,-94.2433,-2.0,22.92,11111222 
TABS,ioos:station:wmo:42050:1,2001-05-03T07:00:00Z,28.8425,-94.2433,-2.0,22.94,11111222 
TABS,ioos:station:wmo:42050:1,2001-05-03T07:30:00Z,28.8425,-94.2433,-2.0,23.02,11111222 
TABS,ioos:station:wmo:42050:1,2001-05-03T08:00:00Z,28.8425,-94.2433,-2.0,23.05,11111222 
TABS,ioos:station:wmo:42050:1,2001-05-03T08:30:00Z,28.8425,-94.2433,-2.0,23.04,11111222 
TABS,ioos:station:wmo:42050:1,2001-05-03T09:00:00Z,28.8425,-94.2433,-2.0,23.0,11111222 
TABS,ioos:station:wmo:42050:1,2001-05-03T09:30:00Z,28.8425,-94.2433,-2.0,22.92,11111222 
TABS,ioos:station:wmo:42050:1,2001-05-03T10:00:00Z,28.8425,-94.2433,-2.0,22.82,11111222 
TABS,ioos:station:wmo:42050:1,2001-05-03T10:30:00Z,28.8425,-94.2433,-2.0,22.78,11111222 
TABS,ioos:station:wmo:42050:1,2001-05-03T11:00:00Z,28.8425,-94.2433,-2.0,22.67,11111222 
TABS,ioos:station:wmo:42050:1,2001-05-03T11:30:00Z,28.8425,-94.2433,-2.0,22.71,11111222 
TABS,ioos:station:wmo:42050:1,2001-05-03T12:00:00Z,28.8425,-94.2433,-2.0,22.69,11111222 
TABS,ioos:station:wmo:42050:1,2001-05-03T12:30:00Z,28.8425,-94.2433,-2.0,22.68,11111222 
TABS,ioos:station:wmo:42050:1,2001-05-03T13:00:00Z,28.8425,-94.2433,-2.0,22.69,11111222 
TABS,ioos:station:wmo:42050:1,2001-05-03T13:30:00Z,28.8425,-94.2433,-2.0,22.7,11111222 
TABS,ioos:station:wmo:42050:1,2001-05-03T14:00:00Z,28.8425,-94.2433,-2.0,22.8,11111222 
TABS,ioos:station:wmo:42050:1,2001-05-03T14:30:00Z,28.8425,-94.2433,-2.0,22.8,11111222 
TABS,ioos:station:wmo:42050:1,2001-05-03T15:00:00Z,28.8425,-94.2433,-2.0,22.81,11111222 
TABS,ioos:station:wmo:42050:1,2001-05-03T15:30:00Z,28.8425,-94.2433,-2.0,22.85,11111222 
TABS,ioos:station:wmo:42050:1,2001-05-03T16:00:00Z,28.8425,-94.2433,-2.0,23.28,11111222 
TABS,ioos:station:wmo:42050:1,2001-05-03T16:30:00Z,28.8425,-94.2433,-2.0,23.32,11111222 
TABS,ioos:station:wmo:42050:1,2001-05-03T17:00:00Z,28.8425,-94.2433,-2.0,23.34,11111222 
TABS,ioos:station:wmo:42050:1,2001-05-03T17:30:00Z,28.8425,-94.2433,-2.0,23.36,11111222 
TABS,ioos:station:wmo:42050:1,2001-05-03T18:00:00Z,28.8425,-94.2433,-2.0,23.42,11111222 
TABS,ioos:station:wmo:42050:1,2001-05-03T18:30:00Z,28.8425,-94.2433,-2.0,23.4,11111222 
TABS,ioos:station:wmo:42050:1,2001-05-03T19:00:00Z,28.8425,-94.2433,-2.0,23.48,11111222 
TABS,ioos:station:wmo:42050:1,2001-05-03T19:30:00Z,28.8425,-94.2433,-2.0,23.48,11111222 
TABS,ioos:station:wmo:42050:1,2001-05-03T20:00:00Z,28.8425,-94.2433,-2.0,23.52,11111222 
TABS,ioos:station:wmo:42050:1,2001-05-03T20:30:00Z,28.8425,-94.2433,-2.0,23.55,11111222 
TABS,ioos:station:wmo:42050:1,2001-05-03T21:00:00Z,28.8425,-94.2433,-2.0,23.54,11111222 
TABS,ioos:station:wmo:42050:1,2001-05-03T21:30:00Z,28.8425,-94.2433,-2.0,23.55,11111222 
TABS,ioos:station:wmo:42050:1,2001-05-03T22:00:00Z,28.8425,-94.2433,-2.0,23.55,11111222 
TABS,ioos:station:wmo:42050:1,2001-05-03T22:30:00Z,28.8425,-94.2433,-2.0,23.52,11111222 
TABS,ioos:station:wmo:42050:1,2001-05-03T23:00:00Z,28.8425,-94.2433,-2.0,23.51,11111222 
TABS,ioos:station:wmo:42050:1,2001-05-03T23:30:00Z,28.8425,-94.2433,-2.0,23.51,11111222 
TABS,ioos:station:wmo:42050:1,2001-05-04T04:00:00Z,28.8425,-94.2433,-2.0,23.29,11111222 
TABS,ioos:station:wmo:42050:1,2001-05-04T04:30:00Z,28.8425,-94.2433,-2.0,23.28,11111222 
TABS,ioos:station:wmo:42050:1,2001-05-04T05:00:00Z,28.8425,-94.2433,-2.0,23.27,11111222 
TABS,ioos:station:wmo:42050:1,2001-05-04T05:30:00Z,28.8425,-94.2433,-2.0,23.25,11111222 
TABS,ioos:station:wmo:42050:1,2001-05-04T06:00:00Z,28.8425,-94.2433,-2.0,23.29,11111222 
TABS,ioos:station:wmo:42050:1,2001-05-04T06:30:00Z,28.8425,-94.2433,-2.0,23.31,11111222 
TABS,ioos:station:wmo:42050:1,2001-05-04T07:00:00Z,28.8425,-94.2433,-2.0,23.32,11111222 
TABS,ioos:station:wmo:42050:1,2001-05-04T07:30:00Z,28.8425,-94.2433,-2.0,23.33,11111222 
TABS,ioos:station:wmo:42050:1,2001-05-04T08:00:00Z,28.8425,-94.2433,-2.0,23.36,11111222 
TABS,ioos:station:wmo:42050:1,2001-05-04T08:30:00Z,28.8425,-94.2433,-2.0,23.35,11111222 
TABS,ioos:station:wmo:42050:1,2001-05-04T09:00:00Z,28.8425,-94.2433,-2.0,23.36,11111222 
TABS,ioos:station:wmo:42050:1,2001-05-04T09:30:00Z,28.8425,-94.2433,-2.0,23.27,11111222 
TABS,ioos:station:wmo:42050:1,2001-05-04T10:00:00Z,28.8425,-94.2433,-2.0,23.26,11111222 
TABS,ioos:station:wmo:42050:1,2001-05-04T10:30:00Z,28.8425,-94.2433,-2.0,23.25,11111222 
TABS,ioos:station:wmo:42050:1,2001-05-04T11:00:00Z,28.8425,-94.2433,-2.0,23.33,11111222 
TABS,ioos:station:wmo:42050:1,2001-05-04T11:30:00Z,28.8425,-94.2433,-2.0,23.34,11111222 
TABS,ioos:station:wmo:42050:1,2001-05-04T12:00:00Z,28.8425,-94.2433,-2.0,23.34,11111222 
TABS,ioos:station:wmo:42050:1,2001-05-04T12:30:00Z,28.8425,-94.2433,-2.0,23.35,11111222 
TABS,ioos:station:wmo:42050:1,2001-05-04T13:00:00Z,28.8425,-94.2433,-2.0,23.35,11111222 
TABS,ioos:station:wmo:42050:1,2001-05-04T13:30:00Z,28.8425,-94.2433,-2.0,23.38,11111222 
TABS,ioos:station:wmo:42050:1,2001-05-04T14:00:00Z,28.8425,-94.2433,-2.0,23.4,11111222 
TABS,ioos:station:wmo:42050:1,2001-05-04T14:30:00Z,28.8425,-94.2433,-2.0,23.43,11111222 
TABS,ioos:station:wmo:42050:1,2001-05-04T15:00:00Z,28.8425,-94.2433,-2.0,23.44,11111222 
TABS,ioos:station:wmo:42050:1,2001-05-04T15:30:00Z,28.8425,-94.2433,-2.0,23.47,11111222 
TABS,ioos:station:wmo:42050:1,2001-05-04T16:00:00Z,28.8425,-94.2433,-2.0,23.49,11111222 
TABS,ioos:station:wmo:42050:1,2001-05-04T16:30:00Z,28.8425,-94.2433,-2.0,23.52,11111222 
TABS,ioos:station:wmo:42050:1,2001-05-04T17:00:00Z,28.8425,-94.2433,-2.0,23.52,11111222 
TABS,ioos:station:wmo:42050:1,2001-05-04T17:30:00Z,28.8425,-94.2433,-2.0,23.55,11111222 
TABS,ioos:station:wmo:42050:1,2001-05-04T18:00:00Z,28.8425,-94.2433,-2.0,23.56,11111222 
TABS,ioos:station:wmo:42050:1,2001-05-04T18:30:00Z,28.8425,-94.2433,-2.0,23.6,11111222 
TABS,ioos:station:wmo:42050:1,2001-05-04T19:00:00Z,28.8425,-94.2433,-2.0,23.63,11111222 
TABS,ioos:station:wmo:42050:1,2001-05-04T19:30:00Z,28.8425,-94.2433,-2.0,23.66,11111222 
TABS,ioos:station:wmo:42050:1,2001-05-04T20:00:00Z,28.8425,-94.2433,-2.0,23.71,11111222 
TABS,ioos:station:wmo:42050:1,2001-05-04T20:30:00Z,28.8425,-94.2433,-2.0,23.75,11111222 
TABS,ioos:station:wmo:42050:1,2001-05-04T21:00:00Z,28.8425,-94.2433,-2.0,23.76,11111222 
TABS,ioos:station:wmo:42050:1,2001-05-04T21:30:00Z,28.8425,-94.2433,-2.0,23.76,11111222 
TABS,ioos:station:wmo:42050:1,2001-05-04T22:00:00Z,28.8425,-94.2433,-2.0,23.75,11111222 
TABS,ioos:station:wmo:42050:1,2001-05-04T22:30:00Z,28.8425,-94.2433,-2.0,23.75,11111222 
TABS,ioos:station:wmo:42050:1,2001-05-04T23:00:00Z,28.8425,-94.2433,-2.0,23.74,11111222 
TABS,ioos:station:wmo:42050:1,2001-05-04T23:30:00Z,28.8425,-94.2433,-2.0,23.72,11111222 
TABS,ioos:station:wmo:42050:1,2001-05-05T00:00:00Z,28.8425,-94.2433,-2.0,23.68,11111222 
TABS,ioos:station:wmo:42050:1,2001-05-05T00:30:00Z,28.8425,-94.2433,-2.0,23.66,11111222 
TABS,ioos:station:wmo:42050:1,2001-05-05T01:00:00Z,28.8425,-94.2433,-2.0,23.64,11111222 
TABS,ioos:station:wmo:42050:1,2001-05-05T01:30:00Z,28.8425,-94.2433,-2.0,23.62,11111222 
TABS,ioos:station:wmo:42050:1,2001-05-05T02:00:00Z,28.8425,-94.2433,-2.0,23.6,11111222 
TABS,ioos:station:wmo:42050:1,2001-05-05T02:30:00Z,28.8425,-94.2433,-2.0,23.58,11111222 
TABS,ioos:station:wmo:42050:1,2001-05-05T03:00:00Z,28.8425,-94.2433,-2.0,23.57,11111222 
TABS,ioos:station:wmo:42050:1,2001-05-05T03:30:00Z,28.8425,-94.2433,-2.0,23.56,11111222 
TABS,ioos:station:wmo:42050:1,2001-05-05T04:00:00Z,28.8425,-94.2433,-2.0,23.55,11111222 
TABS,ioos:station:wmo:42050:1,2001-05-05T04:30:00Z,28.8425,-94.2433,-2.0,23.56,11111222 
TABS,ioos:station:wmo:42050:1,2001-05-05T05:00:00Z,28.8425,-94.2433,-2.0,23.55,11111222 
TABS,ioos:station:wmo:42050:1,2001-05-05T05:30:00Z,28.8425,-94.2433,-2.0,23.55,11111222 
TABS,ioos:station:wmo:42050:1,2001-05-05T06:00:00Z,28.8425,-94.2433,-2.0,23.56,11111222 
TABS,ioos:station:wmo:42050:1,2001-05-05T06:30:00Z,28.8425,-94.2433,-2.0,23.54,11111222 
TABS,ioos:station:wmo:42050:1,2001-05-07T06:00:00Z,28.8425,-94.2433,-2.0,24.0,11111222 
TABS,ioos:station:wmo:42050:1,2001-05-07T06:30:00Z,28.8425,-94.2433,-2.0,24.0,11111222 
TABS,ioos:station:wmo:42050:1,2001-05-07T07:00:00Z,28.8425,-94.2433,-2.0,24.0,11111222 
TABS,ioos:station:wmo:42050:1,2001-05-07T07:30:00Z,28.8425,-94.2433,-2.0,24.0,11111222 
TABS,ioos:station:wmo:42050:1,2001-05-07T08:00:00Z,28.8425,-94.2433,-2.0,24.0,11111222 
TABS,ioos:station:wmo:42050:1,2001-05-07T08:30:00Z,28.8425,-94.2433,-2.0,23.98,11111222 
TABS,ioos:station:wmo:42050:1,2001-05-07T09:00:00Z,28.8425,-94.2433,-2.0,23.97,11111222 
TABS,ioos:station:wmo:42050:1,2001-05-07T09:30:00Z,28.8425,-94.2433,-2.0,23.98,11111222 
TABS,ioos:station:wmo:42050:1,2001-05-07T10:00:00Z,28.8425,-94.2433,-2.0,23.96,11111222 
TABS,ioos:station:wmo:42050:1,2001-05-07T10:30:00Z,28.8425,-94.2433,-2.0,23.95,11111222 
TABS,ioos:station:wmo:42050:1,2001-05-07T11:00:00Z,28.8425,-94.2433,-2.0,23.93,11111222 
TABS,ioos:station:wmo:42050:1,2001-05-07T11:30:00Z,28.8425,-94.2433,-2.0,23.91,11111222 
TABS,ioos:station:wmo:42050:1,2001-05-07T12:00:00Z,28.8425,-94.2433,-2.0,23.9,11111222 
TABS,ioos:station:wmo:42050:1,2001-05-07T12:30:00Z,28.8425,-94.2433,-2.0,23.88,11111222 
TABS,ioos:station:wmo:42050:1,2001-05-07T13:00:00Z,28.8425,-94.2433,-2.0,23.88,11111222 
TABS,ioos:station:wmo:42050:1,2001-05-07T13:30:00Z,28.8425,-94.2433,-2.0,23.88,11111222 
TABS,ioos:station:wmo:42050:1,2001-05-07T14:00:00Z,28.8425,-94.2433,-2.0,23.89,11111222 
TABS,ioos:station:wmo:42050:1,2001-05-07T14:30:00Z,28.8425,-94.2433,-2.0,23.89,11111222 
TABS,ioos:station:wmo:42050:1,2001-05-07T15:00:00Z,28.8425,-94.2433,-2.0,23.88,11111222 
TABS,ioos:station:wmo:42050:1,2001-05-07T15:30:00Z,28.8425,-94.2433,-2.0,23.89,11111222 
TABS,ioos:station:wmo:42050:1,2001-05-07T16:30:00Z,28.8425,-94.2433,-2.0,23.91,11111222 
TABS,ioos:station:wmo:42050:1,2001-05-07T17:00:00Z,28.8425,-94.2433,-2.0,23.91,11111222 
TABS,ioos:station:wmo:42050:1,2001-05-07T17:30:00Z,28.8425,-94.2433,-2.0,23.93,11111222 
TABS,ioos:station:wmo:42050:1,2001-05-07T18:00:00Z,28.8425,-94.2433,-2.0,23.93,11111222 
TABS,ioos:station:wmo:42050:1,2001-05-07T18:30:00Z,28.8425,-94.2433,-2.0,23.97,11111222 
TABS,ioos:station:wmo:42050:1,2001-05-07T19:00:00Z,28.8425,-94.2433,-2.0,23.96,11111222 
TABS,ioos:station:wmo:42050:1,2001-05-07T19:30:00Z,28.8425,-94.2433,-2.0,23.98,11111222 
TABS,ioos:station:wmo:42050:1,2001-05-07T20:00:00Z,28.8425,-94.2433,-2.0,24.01,11111222 
TABS,ioos:station:wmo:42050:1,2001-05-07T20:30:00Z,28.8425,-94.2433,-2.0,24.04,11111222 
TABS,ioos:station:wmo:42050:1,2001-05-07T21:00:00Z,28.8425,-94.2433,-2.0,24.09,11111222 
TABS,ioos:station:wmo:42050:1,2001-05-07T21:30:00Z,28.8425,-94.2433,-2.0,24.1,11111222 
TABS,ioos:station:wmo:42050:1,2001-05-07T22:00:00Z,28.8425,-94.2433,-2.0,24.11,11111222 
TABS,ioos:station:wmo:42050:1,2001-05-07T22:30:00Z,28.8425,-94.2433,-2.0,24.13,11111222 
TABS,ioos:station:wmo:42050:1,2001-05-07T23:00:00Z,28.8425,-94.2433,-2.0,24.15,11111222 
TABS,ioos:station:wmo:42050:1,2001-05-07T23:30:00Z,28.8425,-94.2433,-2.0,24.15,11111222 
TABS,ioos:station:wmo:42050:1,2001-05-08T14:00:00Z,28.8425,-94.2433,-2.0,23.97,11111222 
TABS,ioos:station:wmo:42050:1,2001-05-08T14:30:00Z,28.8425,-94.2433,-2.0,23.99,11111222 
TABS,ioos:station:wmo:42050:1,2001-05-08T15:00:00Z,28.8425,-94.2433,-2.0,24.02,11111222 
TABS,ioos:station:wmo:42050:1,2001-05-08T15:30:00Z,28.8425,-94.2433,-2.0,24.08,11111222 
TABS,ioos:station:wmo:42050:1,2001-05-08T16:00:00Z,28.8425,-94.2433,-2.0,24.08,11111222 
TABS,ioos:station:wmo:42050:1,2001-05-08T16:30:00Z,28.8425,-94.2433,-2.0,24.12,11111222 
TABS,ioos:station:wmo:42050:1,2001-05-08T17:00:00Z,28.8425,-94.2433,-2.0,24.17,11111222 
TABS,ioos:station:wmo:42050:1,2001-05-08T17:30:00Z,28.8425,-94.2433,-2.0,24.19,11111222 
TABS,ioos:station:wmo:42050:1,2001-05-08T18:00:00Z,28.8425,-94.2433,-2.0,24.23,11111222 
TABS,ioos:station:wmo:42050:1,2001-05-08T18:30:00Z,28.8425,-94.2433,-2.0,24.27,11111222 
TABS,ioos:station:wmo:42050:1,2001-05-08T19:00:00Z,28.8425,-94.2433,-2.0,24.31,11111222 
TABS,ioos:station:wmo:42050:1,2001-05-08T19:30:00Z,28.8425,-94.2433,-2.0,24.37,11111222 
TABS,ioos:station:wmo:42050:1,2001-05-08T20:00:00Z,28.8425,-94.2433,-2.0,24.43,11111222 
TABS,ioos:station:wmo:42050:1,2001-05-08T20:30:00Z,28.8425,-94.2433,-2.0,24.45,11111222 
TABS,ioos:station:wmo:42050:1,2001-05-08T21:00:00Z,28.8425,-94.2433,-2.0,24.47,11111222 
TABS,ioos:station:wmo:42050:1,2001-05-08T21:30:00Z,28.8425,-94.2433,-2.0,24.45,11111222 
TABS,ioos:station:wmo:42050:1,2001-05-08T22:00:00Z,28.8425,-94.2433,-2.0,24.46,11111222 
TABS,ioos:station:wmo:42050:1,2001-05-08T22:30:00Z,28.8425,-94.2433,-2.0,24.45,11111222 
TABS,ioos:station:wmo:42050:1,2001-05-08T23:00:00Z,28.8425,-94.2433,-2.0,24.46,11111222 
TABS,ioos:station:wmo:42050:1,2001-05-08T23:30:00Z,28.8425,-94.2433,-2.0,24.47,11111222 
TABS,ioos:station:wmo:42050:1,2001-05-09T00:00:00Z,28.8425,-94.2433,-2.0,24.45,11111222 
TABS,ioos:station:wmo:42050:1,2001-05-09T00:30:00Z,28.8425,-94.2433,-2.0,24.42,11111222 
TABS,ioos:station:wmo:42050:1,2001-05-09T01:00:00Z,28.8425,-94.2433,-2.0,24.39,11111222 
TABS,ioos:station:wmo:42050:1,2001-05-09T01:30:00Z,28.8425,-94.2433,-2.0,24.37,11111222 
TABS,ioos:station:wmo:42050:1,2001-05-09T02:00:00Z,28.8425,-94.2433,-2.0,24.37,11111222 
TABS,ioos:station:wmo:42050:1,2001-05-09T02:30:00Z,28.8425,-94.2433,-2.0,24.36,11111222 
TABS,ioos:station:wmo:42050:1,2001-05-09T03:00:00Z,28.8425,-94.2433,-2.0,24.33,11111222 
TABS,ioos:station:wmo:42050:1,2001-05-09T03:30:00Z,28.8425,-94.2433,-2.0,24.31,11111222 
TABS,ioos:station:wmo:42050:1,2001-05-09T04:00:00Z,28.8425,-94.2433,-2.0,24.3,11111222 
TABS,ioos:station:wmo:42050:1,2001-05-09T04:30:00Z,28.8425,-94.2433,-2.0,24.31,11111222 
TABS,ioos:station:wmo:42050:1,2001-05-09T05:00:00Z,28.8425,-94.2433,-2.0,24.3,11111222 
TABS,ioos:station:wmo:42050:1,2001-05-09T05:30:00Z,28.8425,-94.2433,-2.0,24.28,11111222 
TABS,ioos:station:wmo:42050:1,2001-05-09T06:00:00Z,28.8425,-94.2433,-2.0,24.28,11111222 
TABS,ioos:station:wmo:42050:1,2001-05-09T06:30:00Z,28.8425,-94.2433,-2.0,24.26,11111222 
TABS,ioos:station:wmo:42050:1,2001-05-09T07:00:00Z,28.8425,-94.2433,-2.0,24.25,11111222 
TABS,ioos:station:wmo:42050:1,2001-05-09T07:30:00Z,28.8425,-94.2433,-2.0,24.23,11111222 
TABS,ioos:station:wmo:42050:1,2001-05-09T08:00:00Z,28.8425,-94.2433,-2.0,24.23,11111222 
TABS,ioos:station:wmo:42050:1,2001-05-09T08:30:00Z,28.8425,-94.2433,-2.0,24.23,11111222 
TABS,ioos:station:wmo:42050:1,2001-05-09T09:00:00Z,28.8425,-94.2433,-2.0,24.23,11111222 
TABS,ioos:station:wmo:42050:1,2001-05-09T09:30:00Z,28.8425,-94.2433,-2.0,24.23,11111222 
TABS,ioos:station:wmo:42050:1,2001-05-09T10:00:00Z,28.8425,-94.2433,-2.0,24.21,11111222 
TABS,ioos:station:wmo:42050:1,2001-05-09T10:30:00Z,28.8425,-94.2433,-2.0,24.21,11111222 
TABS,ioos:station:wmo:42050:1,2001-05-09T11:00:00Z,28.8425,-94.2433,-2.0,24.22,11111222 
TABS,ioos:station:wmo:42050:1,2001-05-09T11:30:00Z,28.8425,-94.2433,-2.0,24.21,11111222 
TABS,ioos:station:wmo:42050:1,2001-05-09T12:00:00Z,28.8425,-94.2433,-2.0,24.2,11111222 
TABS,ioos:station:wmo:42050:1,2001-05-09T12:30:00Z,28.8425,-94.2433,-2.0,24.2,11111222 
TABS,ioos:station:wmo:42050:1,2001-05-09T13:00:00Z,28.8425,-94.2433,-2.0,24.19,11111222 
TABS,ioos:station:wmo:42050:1,2001-05-09T13:30:00Z,28.8425,-94.2433,-2.0,24.19,11111222 
TABS,ioos:station:wmo:42050:1,2001-05-09T14:00:00Z,28.8425,-94.2433,-2.0,24.2,11111222 
TABS,ioos:station:wmo:42050:1,2001-05-09T14:30:00Z,28.8425,-94.2433,-2.0,24.21,11111222 
TABS,ioos:station:wmo:42050:1,2001-05-09T15:00:00Z,28.8425,-94.2433,-2.0,24.23,11111222 
TABS,ioos:station:wmo:42050:1,2001-05-09T15:30:00Z,28.8425,-94.2433,-2.0,24.26,11111222 